Flag for Germany Weather past 2 weeks in Saalfeld/Saale, Thuringia, Germany

Now
46 °F

Scattered clouds.


Feels Like: 44 °F
Forecast: 30 / 56 °F
Wind: 6 mph from Northeast

Location: Erfurt-Bindersleben

Current Time: Apr 18, 2015 at 2:04:54 PM

Latest Report: Apr 18, 2015 at 1:20 PM


Visibility: N/A

Pressure: 30.30 "Hg

Humidity: 57%

Dew point: 32 °F

Location of Saalfeld/SaaleLocation

Historic Weather in Saalfeld/Saale — Graph

°F

Saalfeld/Saale temperature yesterday

Maximum temperature yesterday: 48 °F (at 12:50 PM)
Minimum temperature yesterday: 39 °F (at 4:20 AM)
Average temperature yesterday: 44 °F

Past Weeks' High & Low Weather Summary

 TemperatureHumidityPressure
High73 °F (Apr 15, 3:50 PM)100% (Apr 4, 8:20 AM)30.57 "Hg (Apr 4, 8:20 AM)
Low25 °F (Apr 7, 6:50 AM)25% (Apr 15, 3:50 PM)29.92 "Hg (Apr 15, 6:50 PM)
Average47 °F65%30.21 "Hg
* Reported Apr 3 12:20 PM — Apr 18 12:50 PM, Saalfeld/Saale, Weather by CustomWeather, © 2015

Note: Actual official high and low records may vary slightly from our data, if they occured in-between our weather recording intervals... More about our weather records

Advertising

Saalfeld/Saale weather history for previous 24 hours

 ConditionsComfort  
Time TempWeatherWind HumidityBarometerVisibility
12:50 PM
Sat, Apr 18
46 °FScattered clouds.7 mph53%30.30 "HgN/A
12:20 PM46 °FScattered clouds.7 mph62%30.30 "HgN/A
11:50 AM45 °FScattered clouds.7 mph57%30.30 "HgN/A
11:20 AM45 °FScattered clouds.8 mph61%30.30 "HgN/A
10:50 AM41 °FScattered clouds.10 mph70%30.27 "HgN/A
10:20 AM43 °FScattered clouds.7 mph76%30.27 "HgN/A
9:50 AM39 °FScattered clouds.8 mph81%30.27 "HgN/A
9:20 AM39 °FScattered clouds.7 mph75%30.27 "HgN/A
8:50 AM39 °FScattered clouds.8 mph81%30.24 "HgN/A
8:20 AM39 °FScattered clouds.9 mph81%30.24 "HgN/A
7:50 AM39 °FPassing clouds.9 mph81%30.24 "HgN/A
7:20 AM37 °FScattered clouds.8 mph81%30.21 "HgN/A
6:50 AM37 °FPassing clouds.6 mph81%30.21 "HgN/A
6:20 AM37 °FPassing clouds.6 mph81%30.21 "HgN/A
5:50 AM37 °FPassing clouds.7 mph81%30.18 "HgN/A
5:20 AM37 °FPassing clouds.7 mph81%30.18 "HgN/A
4:50 AM37 °FPassing clouds.7 mph81%30.18 "HgN/A
4:20 AM39 °FPassing clouds.7 mph70%30.18 "HgN/A
3:50 AM39 °FClear.6 mph70%30.18 "Hg10 mi
3:20 AM37 °FClear.7 mph75%30.15 "Hg10 mi
2:50 AM37 °FClear.6 mph70%30.15 "Hg10 mi
2:20 AM39 °FClear.7 mph70%30.15 "Hg10 mi
1:50 AM37 °FPassing clouds.6 mph70%30.15 "HgN/A
1:20 AM39 °FPassing clouds.7 mph70%30.15 "HgN/A
12:50 AM41 °FClear.9 mph66%30.12 "Hg10 mi
12:20 AM43 °FClear.14 mph61%30.12 "Hg10 mi
11:50 PM
Fri, Apr 17
41 °FClear.10 mph66%30.09 "Hg10 mi
11:20 PM41 °FClear.7 mph70%30.09 "Hg10 mi
10:50 PM41 °FClear.7 mph66%30.09 "Hg10 mi
10:20 PM41 °FClear.7 mph66%30.09 "Hg10 mi
9:50 PM41 °FClear.5 mph66%30.09 "Hg10 mi
9:20 PM43 °FClear.5 mph66%30.07 "Hg10 mi
8:50 PM45 °FSunny.6 mph57%30.07 "Hg10 mi
8:20 PM45 °FSunny.5 mph61%30.04 "Hg10 mi
7:50 PM46 °FSunny.6 mph57%30.04 "Hg10 mi
7:20 PM46 °FPartly sunny.7 mph57%30.04 "HgN/A
6:50 PM46 °FSunny.9 mph57%30.04 "Hg10 mi
6:20 PM48 °FSunny.10 mph50%30.01 "Hg10 mi
5:50 PM48 °FSunny.15 mph50%30.01 "Hg10 mi
5:20 PM48 °FPartly sunny.13 mph50%30.01 "HgN/A
4:50 PM48 °FPartly sunny.9 mph54%30.01 "HgN/A
4:20 PM48 °FPartly sunny.12 mph58%30.01 "HgN/A
3:50 PM48 °FPartly sunny.9 mph54%30.01 "HgN/A
3:20 PM48 °FPartly sunny.8 mph54%29.98 "HgN/A
2:50 PM48 °FPartly sunny.6 mph54%29.98 "HgN/A
2:20 PM48 °FPartly sunny.6 mph58%29.98 "HgN/A
Weather by CustomWeather, © 2015

See weather overviewHow to use our weather pages